Language: 


Des rapports , des résumés tant et plus, au choix de chacun....


Données statistiques de la station
Quotidien Rapport Janvier 23, 2017 Unités:  Anglais    Métrique   les deux
« Précédent Jour
Suivant Jour »
Quotidien Hebdomadaire Mensuel Annuel Actuel
  Haut: Bas: Moyen:
Température: 35.4 °F 24.3 °F 32.4 °F
Pt de rosée: 34.9 °F 22.5 °F 31.6 °F
Humidité: 98 % 0 % 97 %
Vitesse du vent: 6.5 mph 0 mph 1.6 mph
Rafales: 7.4 mph - -
Vent:- - WSW
Pression: 30.4 in 0 in -
Précipitation: 0 in    
Historical Graphs
 
 
Données statistiques pour Janvier 23, 2017
Heure Température Point de rosée Pression Vent Vitesse du vent Refales Humidité Pluie (taux horaire)
00:04 24.3 °F 22.5 °F 30.3 in Calm   2 mph 93 % 0 in
00:09 24.4 °F 22.6 °F 30.3 in West 1.1 mph 2.5 mph 93 % 0 in
00:14 24.6 °F 22.8 °F 30.3 in Calm   2.5 mph 93 % 0 in
00:19 24.8 °F 23.4 °F 30.3 in Calm     94 % 0 in
00:24 25.2 °F 23.5 °F 30.3 in Calm     94 % 0 in
00:29 25.5 °F 24.3 °F 30.3 in Calm     95 % 0 in
00:34 25.9 °F 24.6 °F 30.3 in Calm     95 % 0 in
00:39 26.2 °F 25.2 °F 30.3 in Calm     96 % 0 in
00:44 26.4 °F 25.3 °F 30.3 in Calm     96 % 0 in
00:49 26.8 °F 26.1 °F 30.3 in Calm     97 % 0 in
00:54 27.1 °F 26.1 °F 30.3 in Calm     96 % 0 in
00:59 27.3 °F 26.8 °F 30.3 in Calm     97 % 0 in
01:04 27.9 °F 27 °F 30.3 in Calm     97 % 0 in
01:09 27.9 °F 27.1 °F 30.3 in Calm     97 % 0 in
01:14 28 °F 27.3 °F 30.3 in Calm     97 % 0 in
01:19 28.2 °F 27.7 °F 30.3 in Calm     97 % 0 in
01:24 28.6 °F 27.7 °F 30.3 in Calm     97 % 0 in
01:29 28.6 °F 27.9 °F 30.3 in Calm     97 % 0 in
01:34 28.8 °F 28 °F 30.3 in Calm     97 % 0 in
01:39 28.9 °F 28.2 °F 30.3 in Calm     97 % 0 in
01:44 28.9 °F 28.2 °F 30.3 in Calm     97 % 0 in
01:49 29.1 °F 28.4 °F 30.3 in Calm     97 % 0 in
01:54 29.5 °F 28.6 °F 30.3 in Calm   1.6 mph 97 % 0 in
01:59 29.5 °F 28.8 °F 30.3 in Calm   1.6 mph 97 % 0 in
02:04 29.5 °F 28.8 °F 30.3 in Calm   1.3 mph 97 % 0 in
02:09 29.7 °F 28.9 °F 30.3 in Calm   1.3 mph 97 % 0 in
02:14 29.8 °F 29.1 °F 30.3 in Calm   1.3 mph 97 % 0 in
02:20 30 °F 29.3 °F 30.3 in Calm     97 % 0 in
02:28 30.2 °F 29.5 °F 30.3 in Calm     97 % 0 in
02:33 30.2 °F 29.5 °F 30.3 in Calm     97 % 0 in
02:38 30.4 °F 29.7 °F 30.3 in Calm     97 % 0 in
02:43 30.6 °F 29.8 °F 30.3 in Calm     97 % 0 in
02:54 30.7 °F 30 °F 30.3 in Calm     97 % 0 in
02:59 30.7 °F 30 °F 30.3 in Calm     97 % 0 in
03:06 32 °F 30.2 °F 0 in Calm     0 % 0 in
03:11 30.9 °F 30.2 °F 30.3 in Calm     97 % 0 in
03:16 31.1 °F 30.4 °F 30.3 in Calm     97 % 0 in
03:21 31.1 °F 30.4 °F 30.3 in Calm     97 % 0 in
03:26 31.1 °F 30.4 °F 30.3 in Calm     97 % 0 in
03:31 31.3 °F 30.6 °F 30.3 in Calm     97 % 0 in
03:36 31.3 °F 30.6 °F 30.3 in Calm     97 % 0 in
03:41 31.5 °F 30.7 °F 30.3 in SE 0.9 mph 0.9 mph 97 % 0 in
03:46 31.5 °F 30.7 °F 30.3 in Calm   1.1 mph 97 % 0 in
03:51 31.6 °F 31.1 °F 30.3 in Calm   1.1 mph 98 % 0 in
03:56 31.6 °F 31.1 °F 30.3 in Calm     98 % 0 in
04:01 31.6 °F 31.1 °F 30.3 in Calm     98 % 0 in
04:04 31.6 °F 31.1 °F 30.3 in Calm     98 % 0 in
04:09 31.6 °F 31.1 °F 30.3 in Calm   0.9 mph 98 % 0 in
04:14 31.6 °F 31.1 °F 30.3 in Calm   0.9 mph 98 % 0 in
04:20 31.8 °F 31.3 °F 30.3 in WNW 3.4 mph 3.4 mph 98 % 0 in
04:25 32 °F 31.5 °F 30.3 in Calm   3.4 mph 98 % 0 in
04:30 32 °F 31.5 °F 30.3 in Calm   3.4 mph 98 % 0 in
04:35 32 °F 31.5 °F 30.3 in Calm   1.6 mph 98 % 0 in
04:40 32.2 °F 31.6 °F 30.3 in Calm   1.6 mph 98 % 0 in
04:45 32.2 °F 31.6 °F 30.3 in WNW 0.9 mph 1.6 mph 98 % 0 in
04:50 32.2 °F 31.6 °F 30.3 in Calm   1.6 mph 98 % 0 in
04:55 32.2 °F 31.6 °F 30.3 in Calm   2 mph 98 % 0 in
05:00 32.2 °F 31.6 °F 30.3 in Calm   2 mph 98 % 0 in
05:05 32.2 °F 31.6 °F 30.3 in Calm     98 % 0 in
05:10 32.2 °F 31.6 °F 30.3 in Calm     98 % 0 in
05:15 32.2 °F 31.6 °F 30.3 in Calm     98 % 0 in
05:20 32.2 °F 31.6 °F 30.3 in Calm     98 % 0 in
05:25 32.4 °F 31.8 °F 30.3 in Calm     98 % 0 in
05:30 32.4 °F 31.8 °F 30.3 in Calm   2.2 mph 98 % 0 in
05:35 32.5 °F 32 °F 30.3 in Calm   2.2 mph 98 % 0 in
05:40 32.5 °F 32 °F 30.3 in Calm   1.3 mph 98 % 0 in
05:41 32.5 °F 32 °F 30.3 in Calm   1.3 mph 98 % 0 in
05:46 32.7 °F 32.2 °F 30.3 in Calm     98 % 0 in
05:51 32.7 °F 32.2 °F 30.3 in Calm     98 % 0 in
05:56 32.7 °F 32.2 °F 30.3 in Calm     98 % 0 in
06:01 32.7 °F 32.2 °F 30.3 in SE 1.1 mph 1.1 mph 98 % 0 in
06:06 32.7 °F 32.2 °F 30.3 in Calm   2 mph 98 % 0 in
06:11 32.7 °F 32.2 °F 30.3 in Calm   2 mph 98 % 0 in
06:12 32.7 °F 32.2 °F 30.3 in Calm   1.3 mph 98 % 0 in
06:17 32.7 °F 32.2 °F 30.3 in Calm     98 % 0 in
06:22 32.7 °F 32.2 °F 30.3 in Calm     98 % 0 in
06:27 32.7 °F 32.2 °F 30.3 in Calm     98 % 0 in
06:32 32.9 °F 32.4 °F 30.3 in Calm     98 % 0 in
06:37 33.1 °F 32.5 °F 30.3 in Calm   1.3 mph 98 % 0 in
06:42 33.1 °F 32.5 °F 30.3 in Calm   1.3 mph 98 % 0 in
06:47 33.1 °F 32.5 °F 30.3 in Calm     98 % 0 in
06:52 33.1 °F 32.5 °F 30.3 in Calm     98 % 0 in
06:57 33.1 °F 32.5 °F 30.3 in Calm   1.6 mph 98 % 0 in
07:02 33.1 °F 32.5 °F 30.3 in WNW 1.6 mph 2.5 mph 98 % 0 in
07:07 33.1 °F 32.5 °F 30.3 in Calm   2.5 mph 98 % 0 in
07:08 33.1 °F 32.5 °F 30.3 in Calm   2.5 mph 98 % 0 in
07:13 33.1 °F 32.5 °F 30.3 in Calm   2 mph 98 % 0 in
07:18 33.1 °F 32.5 °F 30.3 in Calm     98 % 0 in
07:23 33.1 °F 32.5 °F 30.3 in NW 2 mph 2.5 mph 98 % 0 in
07:28 33.3 °F 32.7 °F 30.3 in WNW 1.6 mph 2.5 mph 98 % 0 in
07:33 33.3 °F 32.7 °F 30.3 in Calm   2.2 mph 98 % 0 in
07:38 33.3 °F 32.7 °F 30.3 in Calm   1.6 mph 98 % 0 in
07:43 33.3 °F 32.7 °F 30.3 in Calm   2 mph 98 % 0 in
07:48 33.3 °F 32.7 °F 30.3 in NE 2 mph 2.5 mph 98 % 0 in
07:53 33.3 °F 32.7 °F 30.3 in Calm   2.9 mph 98 % 0 in
07:58 33.3 °F 32.7 °F 30.3 in Calm   2.9 mph 98 % 0 in
08:03 33.3 °F 32.7 °F 30.3 in Calm     98 % 0 in
08:08 33.3 °F 32.7 °F 30.3 in WNW 1.3 mph 2 mph 98 % 0 in
08:13 33.3 °F 32.7 °F 30.3 in Calm   2 mph 98 % 0 in
08:18 33.3 °F 32.7 °F 30.3 in Calm   0.9 mph 98 % 0 in
08:23 33.3 °F 32.7 °F 30.3 in East 1.6 mph 2.2 mph 98 % 0 in
08:28 33.4 °F 32.9 °F 30.3 in ESE 2 mph 2.7 mph 98 % 0 in
08:33 33.4 °F 32.9 °F 30.3 in Calm   2.7 mph 98 % 0 in
08:38 33.6 °F 33.1 °F 30.3 in Calm   2 mph 98 % 0 in
08:43 33.6 °F 33.1 °F 30.3 in Calm   1.6 mph 98 % 0 in
08:48 33.6 °F 33.1 °F 30.3 in South 3.4 mph 3.4 mph 98 % 0 in
08:53 33.8 °F 33.3 °F 30.3 in South 1.1 mph 3.4 mph 98 % 0 in
08:58 33.8 °F 33.3 °F 30.3 in SW 2.5 mph 3.4 mph 98 % 0 in
09:03 33.8 °F 33.3 °F 30.3 in Calm   3.1 mph 98 % 0 in
09:08 33.8 °F 33.3 °F 30.3 in South 1.6 mph 2.7 mph 98 % 0 in
09:13 33.8 °F 33.3 °F 30.3 in South 2.9 mph 3.4 mph 98 % 0 in
09:18 34 °F 33.4 °F 30.3 in Calm   3.4 mph 98 % 0 in
09:23 34 °F 33.4 °F 30.3 in SSE 2.7 mph 4 mph 98 % 0 in
09:28 34 °F 33.4 °F 30.3 in SSW 3.6 mph 4 mph 98 % 0 in
09:33 34 °F 33.4 °F 30.3 in South 1.6 mph 4 mph 98 % 0 in
09:38 34 °F 33.4 °F 30.3 in SSW 2.7 mph 3.8 mph 98 % 0 in
09:43 34.2 °F 33.6 °F 30.3 in SSW 2.5 mph 3.4 mph 98 % 0 in
09:48 34.2 °F 33.6 °F 30.3 in Calm   3.4 mph 98 % 0 in
09:53 34.3 °F 33.8 °F 30.3 in SSW 2.2 mph 2.9 mph 98 % 0 in
09:58 34.3 °F 33.8 °F 30.3 in SSW 2.2 mph 2.9 mph 98 % 0 in
10:03 34.5 °F 34 °F 30.3 in South 2 mph 2.9 mph 98 % 0 in
10:08 34.5 °F 34 °F 30.3 in West 2 mph 2.9 mph 98 % 0 in
10:13 34.5 °F 34.2 °F 30.3 in Calm   2.5 mph 98 % 0 in
10:18 34.9 °F 34.3 °F 30.3 in Calm   2.5 mph 98 % 0 in
10:23 34.9 °F 34.3 °F 30.3 in Calm   2.2 mph 98 % 0 in
10:28 34.9 °F 34.3 °F 30.3 in NW 1.1 mph 2.5 mph 98 % 0 in
10:33 35.1 °F 34.5 °F 30.3 in Calm   3.1 mph 98 % 0 in
10:38 35.1 °F 34.5 °F 30.3 in West 3.1 mph 3.1 mph 98 % 0 in
10:43 35.2 °F 34.7 °F 30.3 in WNW 1.6 mph 3.1 mph 98 % 0 in
10:48 35.2 °F 34.7 °F 30.3 in Calm   3.4 mph 98 % 0 in
10:53 35.2 °F 34.7 °F 30.3 in Calm   3.4 mph 98 % 0 in
10:58 35.2 °F 34.7 °F 30.3 in West 2.5 mph 2.5 mph 98 % 0 in
11:03 35.4 °F 34.9 °F 30.3 in WSW 3.1 mph 3.6 mph 98 % 0 in
11:08 35.4 °F 34.9 °F 30.4 in WSW 2.7 mph 3.6 mph 98 % 0 in
11:13 35.4 °F 34.9 °F 30.4 in WSW 2.7 mph 3.1 mph 98 % 0 in
11:18 35.4 °F 34.9 °F 30.4 in West 3.6 mph 3.8 mph 98 % 0 in
11:23 35.4 °F 34.9 °F 30.4 in WSW 2.9 mph 4.3 mph 98 % 0 in
11:28 35.4 °F 34.9 °F 30.4 in West 4 mph 5.4 mph 98 % 0 in
11:33 35.4 °F 34.9 °F 30.4 in WSW 4.3 mph 5.6 mph 98 % 0 in
11:38 35.4 °F 34.9 °F 30.3 in WNW 2.5 mph 5.6 mph 98 % 0 in
11:43 35.4 °F 34.9 °F 30.3 in West 3.1 mph 4.9 mph 97 % 0 in
11:48 35.4 °F 34.9 °F 30.3 in West 3.8 mph 5.4 mph 97 % 0 in
11:53 35.4 °F 34.9 °F 30.3 in WSW 2.9 mph 5.4 mph 97 % 0 in
11:58 35.4 °F 34.9 °F 30.3 in West 3.8 mph 5.6 mph 97 % 0 in
12:03 35.4 °F 34.9 °F 30.3 in WSW 3.8 mph 5.6 mph 98 % 0 in
12:08 35.4 °F 34.5 °F 30.3 in West 3.6 mph 5.6 mph 97 % 0 in
12:13 35.4 °F 34.5 °F 30.3 in West 4.9 mph 6.3 mph 97 % 0 in
12:18 35.4 °F 34.5 °F 30.3 in West 1.3 mph 6.3 mph 97 % 0 in
12:23 35.4 °F 34.5 °F 30.3 in WNW 4.9 mph 6 mph 97 % 0 in
12:28 35.2 °F 34.3 °F 30.3 in West 0.9 mph 6 mph 97 % 0 in
12:33 35.4 °F 34.5 °F 30.3 in Calm   6 mph 97 % 0 in
12:38 35.4 °F 34.5 °F 30.3 in Calm   5.4 mph 97 % 0 in
12:43 35.4 °F 34.5 °F 30.3 in SW 3.4 mph 5.4 mph 97 % 0 in
12:48 35.4 °F 34.5 °F 30.3 in West 3.4 mph 5.4 mph 97 % 0 in
12:53 35.4 °F 34.5 °F 30.3 in West 5.4 mph 6 mph 97 % 0 in
12:58 35.2 °F 34.3 °F 30.3 in West 3.1 mph 6 mph 97 % 0 in
13:03 35.2 °F 34.3 °F 30.3 in West 1.3 mph 6.3 mph 97 % 0 in
13:08 35.2 °F 34.3 °F 30.3 in WSW 4.3 mph 6.3 mph 97 % 0 in
13:13 35.1 °F 34.2 °F 30.3 in WNW 5.4 mph 5.6 mph 97 % 0 in
13:18 35.1 °F 34.2 °F 30.3 in West 6.3 mph 6.3 mph 97 % 0 in
13:23 35.1 °F 34 °F 30.3 in West 0.9 mph 6.3 mph 96 % 0 in
13:28 35.1 °F 34 °F 30.3 in West 3.8 mph 6.3 mph 96 % 0 in
13:33 34.9 °F 33.8 °F 30.3 in West 4.7 mph 6.5 mph 96 % 0 in
13:38 34.9 °F 33.8 °F 30.3 in WNW 3.8 mph 7.2 mph 96 % 0 in
13:43 34.9 °F 33.8 °F 30.3 in West 3.6 mph 7.2 mph 96 % 0 in
13:48 34.9 °F 33.8 °F 30.3 in WSW 3.8 mph 5.8 mph 96 % 0 in
13:53 34.5 °F 33.6 °F 30.3 in SSW 1.1 mph 4.5 mph 96 % 0 in
13:58 34.5 °F 33.6 °F 30.3 in Calm   4 mph 96 % 0 in
14:03 34.5 °F 33.6 °F 30.3 in Calm   5.4 mph 96 % 0 in
14:08 34.5 °F 33.6 °F 30.3 in Calm   5.4 mph 96 % 0 in
14:13 34.5 °F 33.6 °F 30.3 in Calm   4 mph 96 % 0 in
14:18 34.5 °F 33.6 °F 30.3 in West 1.6 mph 4.5 mph 96 % 0 in
14:23 34.5 °F 33.4 °F 30.3 in SW 3.4 mph 4.5 mph 96 % 0 in
14:28 34.5 °F 33.4 °F 30.3 in Calm   4.3 mph 96 % 0 in
14:33 34.5 °F 33.4 °F 30.3 in Calm   3.8 mph 96 % 0 in
14:38 34.5 °F 33.4 °F 30.3 in SW 4 mph 5.4 mph 96 % 0 in
14:43 34.5 °F 33.4 °F 30.3 in WSW 4 mph 5.4 mph 96 % 0 in
14:48 34.3 °F 33.3 °F 30.3 in Calm   4.9 mph 96 % 0 in
14:53 34.3 °F 33.3 °F 30.3 in WSW 4 mph 5.4 mph 96 % 0 in
14:58 34.3 °F 33.3 °F 30.3 in Calm   5.4 mph 96 % 0 in
15:03 34.3 °F 33.3 °F 30.3 in West 4.9 mph 5.6 mph 96 % 0 in
15:08 34.2 °F 33.1 °F 30.3 in West 5.6 mph 6.5 mph 96 % 0 in
15:13 34 °F 32.7 °F 30.3 in WSW 4 mph 6.5 mph 95 % 0 in
15:18 33.8 °F 32.5 °F 30.3 in SW 2.5 mph 7.4 mph 95 % 0 in
15:23 33.8 °F 32.7 °F 30.3 in SW 2.2 mph 7.4 mph 96 % 0 in
15:28 33.8 °F 32.7 °F 30.3 in Calm   4.7 mph 96 % 0 in
15:33 33.8 °F 32.7 °F 30.3 in WSW 5.4 mph 5.4 mph 96 % 0 in
15:38 33.8 °F 32.7 °F 30.3 in Calm   5.4 mph 96 % 0 in
15:43 33.6 °F 32.5 °F 30.3 in Calm   5.4 mph 96 % 0 in
15:48 33.6 °F 32.5 °F 30.3 in SSW 2.9 mph 4.3 mph 96 % 0 in
15:53 33.6 °F 32.5 °F 30.3 in SW 4 mph 4.5 mph 96 % 0 in
15:58 33.4 °F 32.4 °F 30.3 in SSW 1.6 mph 4.5 mph 96 % 0 in
16:03 33.4 °F 32.4 °F 30.3 in Calm   4.5 mph 96 % 0 in
16:08 33.4 °F 32.4 °F 30.3 in Calm   4.5 mph 96 % 0 in
16:13 33.3 °F 32.2 °F 30.3 in West 4 mph 5.8 mph 96 % 0 in
16:15 33.3 °F 32.2 °F 30.3 in West 3.1 mph 5.8 mph 96 % 0 in
16:20 33.3 °F 32.2 °F 30.3 in West 4.9 mph 6.5 mph 96 % 0 in
16:25 33.3 °F 32.2 °F 30.3 in WSW 1.3 mph 6.5 mph 96 % 0 in
16:30 33.3 °F 32.5 °F 30.3 in WSW 3.1 mph 4.9 mph 97 % 0 in
16:35 33.3 °F 32.5 °F 30.3 in Calm   4.3 mph 97 % 0 in
16:40 33.3 °F 32.5 °F 30.3 in West 2.7 mph 3.8 mph 97 % 0 in
16:45 33.1 °F 32.4 °F 30.3 in West 3.8 mph 5.6 mph 97 % 0 in
16:50 33.1 °F 32.4 °F 30.3 in West 4.9 mph 7.4 mph 97 % 0 in
16:55 33.1 °F 32.4 °F 30.4 in WSW 3.6 mph 7.4 mph 97 % 0 in
17:00 32.9 °F 32.2 °F 30.4 in Calm   6 mph 97 % 0 in
17:05 32.7 °F 31.8 °F 30.4 in Calm   4 mph 97 % 0 in
17:10 32.7 °F 31.8 °F 30.3 in Calm   4 mph 97 % 0 in
17:15 32.5 °F 31.8 °F 30.3 in SSW 3.1 mph 4.7 mph 97 % 0 in
17:20 32.5 °F 31.8 °F 30.3 in Calm   4.7 mph 97 % 0 in
17:25 32.5 °F 31.8 °F 30.3 in Calm   3.8 mph 97 % 0 in
17:30 32.4 °F 31.6 °F 30.3 in South 2 mph 3.4 mph 97 % 0 in
17:35 32.4 °F 31.6 °F 30.3 in Calm   3.4 mph 97 % 0 in
17:40 32.4 °F 31.6 °F 30.3 in WSW 2.9 mph 3.4 mph 97 % 0 in
17:45 32.4 °F 31.6 °F 30.3 in Calm   4 mph 97 % 0 in
17:50 32.2 °F 31.5 °F 30.3 in SSW 0.9 mph 4 mph 97 % 0 in
17:55 32.2 °F 31.5 °F 30.3 in Calm   3.8 mph 97 % 0 in
18:00 32.2 °F 31.5 °F 30.3 in Calm   3.8 mph 97 % 0 in
18:05 32.2 °F 31.5 °F 30.3 in WSW 4 mph 4.3 mph 97 % 0 in
18:10 32.2 °F 31.5 °F 30.3 in Calm   4.3 mph 97 % 0 in
18:15 32.2 °F 31.5 °F 30.3 in WNW 1.1 mph 4.7 mph 97 % 0 in
18:20 32.2 °F 31.5 °F 30.3 in West 2.7 mph 4.7 mph 97 % 0 in
18:25 32 °F 31.3 °F 30.3 in West 4 mph 4.3 mph 97 % 0 in
18:30 32 °F 31.3 °F 30.3 in WNW 2 mph 6 mph 97 % 0 in
18:35 31.8 °F 31.1 °F 30.3 in West 2.7 mph 6 mph 97 % 0 in
18:40 31.8 °F 31.1 °F 30.3 in WNW 2.9 mph 4.9 mph 97 % 0 in
18:45 31.8 °F 31.1 °F 30.3 in West 2.5 mph 5.8 mph 97 % 0 in
18:50 31.8 °F 31.1 °F 30.3 in West 3.4 mph 5.8 mph 97 % 0 in
18:55 31.8 °F 31.3 °F 30.3 in Calm   4.3 mph 98 % 0 in
19:00 31.8 °F 31.3 °F 30.3 in WSW 3.8 mph 4.3 mph 98 % 0 in
19:05 31.8 °F 31.3 °F 30.3 in West 4 mph 5.4 mph 98 % 0 in
19:10 31.6 °F 31.1 °F 30.3 in West 5.4 mph 5.8 mph 98 % 0 in
19:15 31.5 °F 30.9 °F 30.3 in WSW 3.8 mph 6.3 mph 98 % 0 in
19:20 31.5 °F 30.9 °F 30.3 in SW 3.4 mph 6.3 mph 98 % 0 in
19:25 31.5 °F 30.9 °F 30.3 in WSW 3.1 mph 6 mph 98 % 0 in
19:30 31.5 °F 30.9 °F 30.3 in West 3.4 mph 4.9 mph 98 % 0 in
19:35 31.5 °F 30.9 °F 30.3 in SW 2.7 mph 4.9 mph 98 % 0 in
19:40 31.5 °F 30.9 °F 30.3 in WSW 2.7 mph 4.3 mph 98 % 0 in
19:45 31.5 °F 30.9 °F 30.3 in SW 0.9 mph 4.3 mph 98 % 0 in
19:50 31.5 °F 30.9 °F 30.3 in Calm   4 mph 98 % 0 in
19:55 31.5 °F 30.9 °F 30.3 in SW 2.5 mph 4 mph 98 % 0 in
19:56 31.5 °F 30.9 °F 30.3 in SW 2.9 mph 4 mph 98 % 0 in
20:01 31.5 °F 30.9 °F 30.3 in South 1.3 mph 3.8 mph 98 % 0 in
20:06 31.3 °F 30.7 °F 30.3 in Calm   3.6 mph 98 % 0 in
20:11 31.3 °F 30.7 °F 30.3 in Calm   2.7 mph 98 % 0 in
20:16 31.3 °F 30.7 °F 30.3 in Calm     98 % 0 in
20:21 31.3 °F 30.7 °F 30.3 in Calm     98 % 0 in
20:26 31.3 °F 30.7 °F 30.3 in Calm   1.3 mph 98 % 0 in
20:31 31.3 °F 30.7 °F 30.3 in Calm   3.8 mph 98 % 0 in
20:36 31.3 °F 30.7 °F 30.3 in Calm   3.8 mph 98 % 0 in
20:41 31.3 °F 30.7 °F 30.3 in Calm   3.8 mph 98 % 0 in
20:46 31.3 °F 30.7 °F 30.3 in WSW 3.4 mph 4 mph 98 % 0 in
20:51 31.3 °F 30.7 °F 30.3 in WSW 4 mph 4.9 mph 98 % 0 in
20:56 31.3 °F 30.7 °F 30.3 in WSW 2.9 mph 4.9 mph 98 % 0 in
21:01 31.3 °F 30.7 °F 30.3 in SSW 2.5 mph 4 mph 98 % 0 in
21:06 31.3 °F 30.7 °F 30.3 in WSW 2 mph 3.8 mph 98 % 0 in
21:11 31.3 °F 30.7 °F 30.3 in SW 2.9 mph 3.8 mph 98 % 0 in
21:16 31.3 °F 30.7 °F 30.3 in WSW 2.7 mph 3.6 mph 98 % 0 in
21:21 31.3 °F 30.7 °F 30.3 in WSW 3.8 mph 4 mph 98 % 0 in
21:26 31.3 °F 30.7 °F 30.3 in SW 2.9 mph 4 mph 98 % 0 in
21:31 31.3 °F 30.7 °F 30.3 in SW 3.4 mph 4.3 mph 98 % 0 in
21:36 31.3 °F 30.7 °F 30.3 in SW 3.6 mph 4.7 mph 98 % 0 in
21:41 31.5 °F 30.9 °F 30.3 in SW 4.9 mph 5.4 mph 98 % 0 in
21:46 31.5 °F 30.9 °F 30.3 in WSW 5.4 mph 5.4 mph 98 % 0 in
21:51 31.5 °F 30.9 °F 30.3 in WSW 6.5 mph 6.5 mph 98 % 0 in
21:56 31.5 °F 30.9 °F 30.3 in SW 3.1 mph 6.5 mph 98 % 0 in
22:01 31.5 °F 30.9 °F 30.3 in SSW 3.4 mph 6.5 mph 98 % 0 in
22:06 31.5 °F 30.9 °F 30.3 in SSW 3.4 mph 5.4 mph 98 % 0 in
22:11 31.5 °F 30.9 °F 30.3 in SSW 2.5 mph 4.3 mph 98 % 0 in
22:16 31.5 °F 30.9 °F 30.3 in SW 4 mph 4.9 mph 98 % 0 in
22:21 31.5 °F 30.9 °F 30.3 in SW 3.1 mph 5.4 mph 98 % 0 in
22:26 31.5 °F 30.9 °F 30.3 in WSW 4 mph 5.4 mph 98 % 0 in
22:31 31.5 °F 30.9 °F 30.3 in WSW 3.1 mph 5.6 mph 98 % 0 in
22:36 31.5 °F 30.9 °F 30.3 in SW 3.8 mph 5.6 mph 98 % 0 in
22:41 31.5 °F 30.9 °F 30.4 in Calm   4.9 mph 98 % 0 in
22:46 31.5 °F 30.9 °F 30.4 in Calm   4.9 mph 98 % 0 in
22:51 31.5 °F 30.9 °F 30.4 in Calm   4 mph 98 % 0 in
22:56 31.5 °F 30.9 °F 30.3 in SW 4 mph 4.9 mph 98 % 0 in
23:01 31.3 °F 30.7 °F 30.3 in WSW 3.1 mph 4.9 mph 98 % 0 in
23:06 31.3 °F 30.7 °F 30.3 in SW 3.4 mph 4.3 mph 98 % 0 in
23:11 31.3 °F 30.7 °F 30.3 in WSW 4 mph 4 mph 98 % 0 in
23:16 31.5 °F 30.9 °F 30.3 in Calm   4 mph 98 % 0 in
23:21 31.5 °F 30.9 °F 30.3 in SSW 3.6 mph 4.3 mph 98 % 0 in
23:26 31.5 °F 30.9 °F 30.3 in SW 3.6 mph 4.3 mph 98 % 0 in
23:31 31.5 °F 30.9 °F 30.3 in WSW 3.1 mph 4.7 mph 98 % 0 in
23:36 31.5 °F 30.9 °F 30.3 in WSW 4.3 mph 4.7 mph 98 % 0 in
23:41 31.5 °F 30.9 °F 30.3 in WSW 5.6 mph 5.6 mph 98 % 0 in
23:46 31.5 °F 30.9 °F 30.3 in WSW 4.3 mph 5.6 mph 98 % 0 in
23:51 31.5 °F 30.9 °F 30.3 in WSW 5.6 mph 5.8 mph 98 % 0 in
23:56 31.5 °F 30.9 °F 30.3 in SW 3.8 mph 5.8 mph 98 % 0 in
Le Gheer Warneton
Courtoisie de Weather Underground - 2.25 mb

Mise a jour : 17/12/2017 22:35:11
Généré par Cumulus 1.9.4 (1099)